7 * 24
多渠道服务支持
STARLINK-34031是美国太空探索技术公司(SpaceX)于2025年5月10日发射的星链(Starlink)低轨通信卫星,属于SpaceX打造全球卫星互联网星座的组成部分。星链卫星采用平板设计,以氪为工质的霍尔推进器,具备自主避撞能力,运行在近地轨道,依托Ku/Ka波段通信技术,旨在为全球提供低延迟高速宽带互联网服务,服役寿命终结后会主动离轨再入大气层烧毁。
美国
(US)
| 数据来源 | 国际轨道数据 |
| 星历时间: | 2026-03-14T21:44:15+0800 6小时前 查看轨道信息 |
| 半长轴: | 6861.065km |
| 偏心率: | 0.0001299 |
| 轨道倾角: | 43.000° |
| 近地点辐角 | 263.495° |
| 升交点赤经 | 148.721° |
| 平近点角 | 96.575° |
| 近地点: | 482.036km |
| 远地点: | 483.82km |
| 周期: | 94.264分钟 |
| 每日圈数: | 15.276206 |